Location: Noverd
(38.0910°N, 121.6877°W)
Time: 19:30:11
(UTC+00:00)

Cosmos 2263 Rocket - Pass Details

Date: 13 February 2026
Orbit: 821 x 848 km, 71.0° (Epoch: 10 March)

Event Time Altitude Azimuth Distance (km) Brightness Sun altitude
Exits shadow 13:43:15 -1° 335° (NNW) 3,489 5.1 -15.5°
Rises 13:43:27 0° 335° (NNW) 3,411 5.1 -15.4°
Reaches altitude 10° 13:45:55 10° 333° (NNW) 2,469 4.3 -14.9°
Maximum altitude 13:51:33 69° 251° (WSW) 895 2.1 -13.8°
Drops below altitude 10° 13:57:06 10° 169° (SSE) 2,437 4.8 -12.8°
Sets 13:59:32 0° 166° (SSE) 3,363 5.6 -12.3°
